N3SW-13 Weather Reports


time (UTC)temp
C
wind
direction
speed
KPH
gust
KPH
rain 1hr
cm
rain 24hr
cm
rain mn
cm
humidity
%
barometer
mb
20260508073045 8 302 0.0 4.8 0.00 0.03 0.00 59 1014.2
20260508071540 9 302 0.0 6.4 0.00 0.03 0.00 60 1014.1
20260508070037 9 317 0.0 4.8 0.00 0.03 0.00 60 1014.3
20260508064538 9 323 1.6 8.0 0.00 0.03 0.00 60 1014.3
20260508063035 9 288 0.0 3.2 0.00 0.03 0.00 61 1014.5
20260508061534 10 288 0.0 1.6 0.00 0.03 0.00 61 1014.5
20260508060039 10 288 0.0 0.0 0.00 0.03 0.00 62 1014.6
20260508054606 10 288 0.0 1.6 0.00 0.03 0.00 63 1014.5
20260508053043 10 288 0.0 1.6 0.00 0.03 0.00 64 1014.3
20260508051526 10 288 0.0 0.0 0.00 0.03 0.00 65 1014.0
20260508050023 10 288 0.0 3.2 0.00 0.03 0.00 65 1013.8
20260508044522 10 288 0.0 3.2 0.00 0.03 0.00 65 1013.6
20260508043026 10 288 0.0 3.2 0.00 0.03 0.00 65 1013.4
20260508041519 10 288 0.0 0.0 0.00 0.03 0.00 65 1013.2
20260508040016 11 288 0.0 0.0 0.00 0.03 0.00 64 1013.2
20260508034518 11 288 0.0 1.6 0.00 0.03 0.03 63 1013.0
20260508033020 11 288 0.0 3.2 0.00 0.03 0.03 64 1013.1
20260508031513 11 288 0.0 1.6 0.00 0.03 0.03 63 1012.8
20260508030009 11 288 0.0 0.0 0.00 0.03 0.03 63 1012.7
20260508024507 11 288 0.0 4.8 0.00 0.10 0.03 62 1012.5
20260508023006 11 288 0.0 4.8 0.00 0.10 0.03 63 1012.4
20260508021504 12 288 0.0 1.6 0.00 0.10 0.03 62 1012.1
20260508020001 12 288 0.0 0.0 0.00 0.10 0.03 63 1011.7
20260508014627 12 288 0.0 3.2 0.00 0.10 0.03 62 1011.4
20260508013101 12 288 0.0 1.6 0.00 0.10 0.03 62 1011.2
20260508011610 12 288 0.0 1.6 0.00 0.10 0.03 61 1011.1
20260508010059 12 288 0.0 4.8 0.00 0.10 0.03 61 1010.8
20260508004556 13 288 0.0 1.6 0.00 0.10 0.03 61 1010.7
20260508003055 13 288 0.0 3.2 0.00 0.10 0.03 61 1010.8
20260508001553 13 288 0.0 4.8 0.00 0.10 0.03 60 1010.5
20260508000051 14 288 0.0 4.8 0.00 0.10 0.03 60 1010.5
20260507234551 14 288 0.0 4.8 0.00 0.10 0.03 60 1010.3
20260507233051 15 336 0.0 8.0 0.00 0.10 0.03 57 1010.1
20260507231551 15 301 0.0 9.7 0.00 0.10 0.03 57 1009.8
20260507230049 15 281 0.0 11.3 0.00 0.10 0.03 58 1009.6
20260507224549 15 300 0.0 9.7 0.00 0.10 0.03 59 1009.5
20260507223048 16 260 0.0 6.4 0.00 0.10 0.03 59 1009.3
20260507221547 16 307 0.0 6.4 0.00 0.10 0.03 58 1009.1
20260507220046 17 310 1.6 8.0 0.00 0.10 0.03 59 1008.7
20260507214547 16 302 0.0 4.8 0.00 0.10 0.03 66 1008.9
20260507213041 16 302 0.0 0.0 0.00 0.10 0.03 72 1008.8
20260507211543 16 302 0.0 1.6 0.00 0.10 0.03 70 1008.9
20260507210039 16 302 0.0 3.2 0.00 0.10 0.03 70 1008.8
20260507204538 15 21 0.0 3.2 0.00 0.10 0.03 76 1008.5
20260507203038 14 21 0.0 4.8 0.00 0.10 0.03 79 1008.6
20260507201535 13 21 0.0 3.2 0.00 0.10 0.03 81 1008.6
20260507200035 13 21 0.0 0.0 0.00 0.10 0.03 83 1008.9
20260507194535 12 21 0.0 0.0 0.00 0.10 0.03 85 1009.3
20260507193036 12 21 0.0 0.0 0.00 0.10 0.03 84 1009.6
20260507191532 12 21 0.0 0.0 0.00 0.10 0.03 84 1009.7
20260507190031 12 21 0.0 0.0 0.00 0.10 0.03 85 1009.7
20260507184527 12 21 0.0 1.6 0.00 0.10 0.03 85 1010.1
20260507183040 12 21 0.0 0.0 0.00 0.10 0.03 87 1010.1
20260507181529 12 21 0.0 0.0 0.00 0.10 0.03 87 1009.9
20260507180032 12 21 0.0 0.0 0.00 0.10 0.03 87 1010.1
20260507174523 12 21 0.0 3.2 0.00 0.13 0.03 87 1010.1
20260507173022 12 21 0.0 1.6 0.00 0.13 0.03 86 1010.3
20260507171519 12 21 0.0 4.8 0.00 0.13 0.03 83 1010.2
20260507170019 12 20 0.0 4.8 0.00 0.13 0.03 81 1010.3
20260507164517 12 20 0.0 6.4 0.00 0.13 0.03 82 1010.2
20260507163016 13 19 0.0 8.0 0.00 0.13 0.03 81 1010.3
20260507161516 13 18 0.0 6.4 0.00 0.13 0.03 81 1010.1
20260507160034 13 19 0.0 9.7 0.00 0.13 0.03 81 1010.3
20260507154515 13 16 0.0 6.4 0.00 0.13 0.03 82 1010.5
20260507153012 13 16 0.0 9.7 0.00 0.13 0.03 81 1010.4
20260507151510 13 355 0.0 9.7 0.00 0.13 0.03 81 1010.4
20260507150011 13 347 1.6 9.7 0.00 0.13 0.03 82 1010.3
20260507144508 13 340 0.0 6.4 0.00 0.13 0.03 81 1010.3
20260507143008 13 336 0.0 4.8 0.00 0.13 0.03 82 1010.1
20260507141515 13 331 0.0 0.0 0.00 0.13 0.03 83 1010.2
20260507140007 13 331 0.0 6.4 0.00 0.13 0.03 84 1009.9
20260507134505 13 316 0.0 1.6 0.00 0.15 0.03 85 1010.3
20260507133004 13 316 0.0 3.2 0.00 0.15 0.03 86 1010.4
20260507131503 13 316 0.0 0.0 0.00 0.15 0.03 87 1010.4
20260507130002 13 316 0.0 0.0 0.00 0.15 0.03 89 1010.4
20260507124504 13 316 0.0 3.2 0.00 0.15 0.03 90 1010.4
20260507123002 13 316 0.0 0.0 0.00 0.15 0.03 90 1010.5
20260507121600 13 316 0.0 3.2 0.00 0.15 0.03 90 1010.4
20260507120059 13 316 0.0 3.2 0.00 0.15 0.03 90 1010.4
20260507114613 13 316 0.0 8.0 0.00 0.15 0.03 90 1010.3
20260507113057 13 317 0.0 3.2 0.03 0.15 0.03 90 1010.2
20260507111554 13 317 0.0 0.0 0.03 0.15 0.03 90 1009.9
20260507110053 13 317 0.0 0.0 0.03 0.15 0.03 89 1009.8
20260507104556 13 317 0.0 0.0 0.03 0.15 0.03 89 1009.8
20260507103051 13 315 0.0 6.4 0.00 0.13 0.00 89 1009.6
20260507101551 13 315 0.0 1.6 0.00 0.13 0.00 89 1009.6
20260507100049 13 315 0.0 0.0 0.00 0.13 0.00 89 1009.5
20260507094549 13 315 0.0 0.0 0.00 0.13 0.00 90 1009.7
20260507093047 14 315 0.0 0.0 0.00 0.13 0.00 91 1009.3
20260507091546 14 315 0.0 1.6 0.00 0.13 0.00 92 1009.6
20260507090045 14 315 0.0 0.0 0.00 0.13 0.00 92 1008.7
20260507084541 15 315 0.0 6.4 0.00 0.13 0.00 93 1009.0
20260507083039 15 315 0.0 0.0 0.00 0.13 0.00 94 1009.6
20260507081537 15 315 0.0 0.0 0.00 0.13 0.00 94 1009.3
20260507080038 15 315 0.0 0.0 0.00 0.13 0.00 95 1009.3
20260507074538 15 315 0.0 0.0 0.00 0.13 0.00 95 1009.5